Portland, ME

8:59 AM EDT on May 26, 2018 (GMT -0400)
Portland International

Weather History for KPWM - January, 2014

Change the Weather History Date:

Monday, January 20, 2014

  Actual Average Record
Temperature  
Mean Temperature 26 °F 22 °F  
Max Temperature 37 °F 31 °F 55 °F (2006)
Min Temperature 14 °F 13 °F -21 °F (1971)
Degree Days  
Heating Degree Days 39 43  
Month to date heating degree days 810 850  
Since 1 July heating degree days 3512 3462  
Cooling Degree Days 0 0  
Month to date cooling degree days 0 0  
Year to date cooling degree days 0 0  
Moisture  
Dew Point 20 °F    
Average Humidity 64    
Maximum Humidity 78    
Minimum Humidity 49    
Precipitation  
Precipitation 0.00 in 0.11 in 1.28 in (1995)
Month to date precipitation 4.00 2.20  
Year to date precipitation 4.00 2.20  
Snow  
Snow 0.00 in 0.60 in 9.60 in (1978)
Month to date snowfall 17.4 12.6  
Since 1 July snowfall 44.1 27.7  
Snow Depth 4.00 in    
Sea Level Pressure  
Sea Level Pressure 29.58 in    
Wind  
Wind Speed 11 mph (WSW)    
Max Wind Speed 21 mph    
Max Gust Speed 28 mph    
Visibility 10 miles    
Events      
T = Trace of Precipitation, MM = Missing Value Source: NWS Daily Summary

Daily Weather History Graph

Daily Weather History Graph

Search for Another Location

Airport or City:

Astronomy

Jan. 20, 2014 Rise Set
Actual Time 7:08 AM EST 4:36 PM EST
Civil Twilight 6:37 AM EST 5:07 PM EST
Nautical Twilight 6:02 AM EST 5:42 PM EST
Astronomical Twilight 5:27 AM EST 6:17 PM EST
Moon 9:18 PM EST (1/20) 8:57 AM EST (1/20)
Length of Visible Light 10h 30m
Length of Day
9h 27m
Waning Gibbous, 83% of the Moon is Illuminated
Jan 20
Waning Gibbous
Jan 24
Last Quarter
Jan 30
New
Feb 6
First Quarter
Feb 14
Full

Hourly Weather History & Observations

Time (EST) Temp. Windchill Dew Point Humidity Pressure Visibility Wind Dir Wind Speed Gust Speed Precip Events Conditions
12:51 AM 27.0 °F 16.1 °F 19.9 °F 75% 29.48 in 10.0 mi SSW 12.7 mph 19.6 mph N/A   Scattered Clouds
1:51 AM 28.0 °F 18.1 °F 21.0 °F 75% 29.50 in 10.0 mi SSW 11.5 mph - N/A   Overcast
2:51 AM 28.9 °F 19.2 °F 21.9 °F 75% 29.51 in 10.0 mi SSW 11.5 mph 18.4 mph N/A   Overcast
3:51 AM 28.9 °F 19.8 °F 21.9 °F 75% 29.50 in 10.0 mi SSW 10.4 mph - N/A   Mostly Cloudy
4:51 AM 30.0 °F 19.1 °F 23.0 °F 75% 29.52 in 10.0 mi SW 15.0 mph 20.7 mph N/A   Overcast
5:51 AM 30.0 °F 20.0 °F 23.0 °F 75% 29.53 in 10.0 mi SW 12.7 mph - N/A   Overcast
6:51 AM 30.0 °F 21.7 °F 24.1 °F 79% 29.53 in 10.0 mi SW 9.2 mph - N/A   Overcast
7:51 AM 30.9 °F 22.8 °F 24.1 °F 76% 29.52 in 10.0 mi SW 9.2 mph - N/A   Overcast
8:51 AM 30.9 °F 24.3 °F 24.1 °F 76% 29.52 in 10.0 mi SW 6.9 mph - N/A   Mostly Cloudy
9:51 AM 32.0 °F 22.5 °F 24.1 °F 73% 29.53 in 10.0 mi SW 12.7 mph - N/A   Mostly Cloudy
10:51 AM 33.1 °F 26.1 °F 25.0 °F 72% 29.51 in 10.0 mi SSW 8.1 mph - N/A   Mostly Cloudy
11:51 AM 35.1 °F 27.4 °F 25.0 °F 67% 29.49 in 10.0 mi SW 10.4 mph 19.6 mph N/A   Mostly Cloudy
12:51 PM 35.1 °F 27.9 °F 25.0 °F 67% 29.48 in 10.0 mi SW 9.2 mph - N/A   Mostly Cloudy
1:51 PM 36.0 °F 27.5 °F 24.1 °F 62% 29.47 in 10.0 mi West 12.7 mph 20.7 mph N/A   Mostly Cloudy
2:51 PM 35.1 °F 27.4 °F 25.0 °F 67% 29.48 in 10.0 mi West 10.4 mph - N/A   Overcast
3:51 PM 35.1 °F 30.1 °F 25.0 °F 67% 29.52 in 10.0 mi West 5.8 mph - N/A   Mostly Cloudy
4:51 PM 35.1 °F 32.2 °F 26.1 °F 70% 29.55 in 10.0 mi SW 3.5 mph - N/A   Overcast
5:51 PM 32.0 °F 23.6 °F 25.0 °F 75% 29.60 in 10.0 mi WNW 10.4 mph - N/A   Mostly Cloudy
6:51 PM 30.9 °F 19.4 °F 19.0 °F 61% 29.65 in 10.0 mi WNW 17.3 mph - N/A   Mostly Cloudy
7:51 PM 28.0 °F 17.0 °F 14.0 °F 56% 29.69 in 10.0 mi West 13.8 mph - N/A   Mostly Cloudy
8:42 PM 24.1 °F 11.5 °F 12.9 °F 62% 29.73 in 10.0 mi North 15.0 mph - N/A   Clear
8:51 PM 24.1 °F 14.4 °F 12.9 °F 62% 29.75 in 10.0 mi North 9.2 mph - N/A   Scattered Clouds
9:51 PM 19.0 °F 5.0 °F 3.9 °F 52% 29.80 in 10.0 mi NW 15.0 mph - N/A   Clear
10:51 PM 16.0 °F 1.1 °F -0.0 °F 49% 29.83 in 10.0 mi NW 15.0 mph - N/A   Clear
11:51 PM 14.0 °F -0.8 °F -2.9 °F 47% 29.87 in 10.0 mi WNW 13.8 mph - N/A   Clear